Weather Roundup
Issued by NWS

Home | Current Version | Previous Version | Graphics & Text | Print | Product List | Glossary Off
Versions: 1 2 3 4 5 6 7 8 9 10 11 12 13 14 15 16 17 18 19 20 21 22 23 24 25 26 27 28 29 30 31 32 33 34 35 36 37 38 39 40 41 42 43 44 45 46 47 48 49 50

751
NZUS93 KARX 051610
HRRWXR

CURRENT HOURLY OBSERVATIONS ACROSS
MUCH OF THE UPPER MISSISSIPPI VALLEY
NATIONAL WEATHER SERVICE LA CROSSE WI
1000 AM CST MON DEC 05 2016


...SOUTHEAST MINNESOTA...


CITY           SKY/WX    TMP DP  RH WIND       PRES   REMARKS
ROCHESTER      PTSUNNY   32  31  96 SE15      29.79F WCI  22
ROCHESTER/MAYO CLOUDY    32  32 100 SE12G18   29.81S WCI  23
WINONA         CLOUDY    36  32  87 CALM      29.87R
AUSTIN         CLOUDY    32  30  93 SE9       29.79S FOG     WCI  24
ALBERT LEA     PTSUNNY   36  36 100 S12       29.76S FOG     WCI  27
DODGE CENTER   CLOUDY    34  30  86 SE14      29.77F WCI  24
PRESTON        FOG       31  30  96 S15       29.84S VSB 1   WCI  20
OWATONNA       CLOUDY    36  30  80 SE15G21   29.74F WCI  26
FARIBAULT      CLOUDY    36  32  87 SE12      29.74S WCI  27
$$

...ELSEWHERE IN MINNESOTA...


CITY           SKY/WX    TMP DP  RH WIND       PRES   REMARKS
MINNEAPOLIS    PTSUNNY   33  29  85 E12       29.74F WCI  24
INTNL FALLS    CLOUDY    29  26  89 SW6       29.76R WCI  23
DULUTH         MOSUNNY   31  27  85 CALM      29.77R
RED WING       PTSUNNY   36  32  87 SE8       29.81R FOG     WCI  29
REDWOOD FALLS  PTSUNNY   35  30  82 SE9       29.64F WCI  28
MANKATO        NOT AVBL
WORTHINGTON    CLOUDY    36  30  79 S16       29.62F WCI  26
FAIRMONT       CLOUDY    36  31  82 S13       29.70F WCI  27
$$

...SOUTHWEST WISCONSIN...


CITY           SKY/WX    TMP DP  RH WIND       PRES   REMARKS
LA CROSSE      CLOUDY    36  33  89 S13       29.88S WCI  27
PRAIRIE DU CHI CLOUDY    33  31  92 SE7       29.92S FOG     WCI  27
BOSCOBEL       CLOUDY    35  32  88 S3        29.93S FOG
LONE ROCK      CLOUDY    34  31  88 S6        29.94S FOG     WCI  29
PLATTEVILLE    CLOUDY    32  32 100 SE12      29.93S VSB 1/4 WCI  23
FORT MC COY    CLOUDY    33  32  96 S7        29.89S FOG     WCI  27
CAMP DOUGLAS   CLOUDY    34  32  93 SE5       29.89S FOG     WCI  30
MAUSTON-NEW LI CLOUDY    33  32  95 S7        29.89S FOG     WCI  27
VIROQUA        CLOUDY    32  32 100 SE8       29.87S VSB<1/4 WCI  25
WIS DELLS      CLOUDY    33  32  98 S8        29.91S FOG     WCI  25
$$

...ELSEWHERE IN WISCONSIN...


CITY           SKY/WX    TMP DP  RH WIND       PRES   REMARKS
MILWAUKEE      CLOUDY    34  31  88 S9        30.00R WCI  27
MADISON        CLOUDY    33  32  96 S10       29.94S FOG     WCI  25
GREEN BAY      CLOUDY    36  32  85 SW6       29.93R WCI  31
EAU CLAIRE     CLOUDY    31  31 100 SE8       29.84S FOG     WCI  23
BLACK RVR FLS  CLOUDY    34  34 100 S3        29.87S FOG
MEDFORD        CLOUDY    29  29  98 S7        29.84S FOG     WCI  22
WAUSAU         CLOUDY    32  29  88 SW9       29.87R WCI  24
WIS RAPIDS     CLOUDY    33  31  92 S7        29.90S WCI  27
MARSHFIELD     CLOUDY    31  29  92 S8        29.86R WCI  23
RICE LAKE      FOG       28  28  98 SE7       29.84S VSB<1/4 WCI  21
$$

...NORTHEAST IOWA...


CITY           SKY/WX    TMP DP  RH WIND       PRES   REMARKS
WATERLOO       CLOUDY    32  31  96 SE13      29.87F FOG     WCI  22
DUBUQUE        SNOW      31  31 100 S15       29.93R VSB<1/4 WCI  20
DECORAH        MIX PCPN  32  32 100 S12       29.86F VSB<1/4 WCI  23
MASON CITY     CLOUDY    32  31  96 S14       29.82S WCI  22
CHARLES CITY   MIX PCPN  32  32 100 SE15      29.83F VSB<1/4 WCI  22
OELWEIN        FOG       32  32 100 SE15      29.88S VSB<1/4 WCI  22
$$

...ELSEWHERE IN IOWA...


CITY           SKY/WX    TMP DP  RH WIND       PRES   REMARKS
DES MOINES     FAIR      39  35  86 S12       29.85S WCI  32
IOWA CITY      FOG       32  31  96 SE12      29.97R VSB 1/2 WCI  23
FORT DODGE     PTSUNNY   37  30  75 S12G17    29.77F WCI  30
MARSHALLTOWN   PTSUNNY   33  33 100 SE15      29.84F FOG     WCI  23
CEDAR RAPIDS   FOG       31  31 100 S12       29.92R VSB 1/4 WCI  22
$$

...NORTHERN ILLINOIS...


CITY           SKY/WX    TMP DP  RH WIND       PRES   REMARKS
CHICAGO-OHARE  CLOUDY    32  30  92 S13       30.03R FOG     WCI  22
CHICAGO-MIDWAY CLOUDY    33  30  88 S10       30.05R FOG     WCI  25
MOLINE         FOG       33  30  88 SE9       29.98S VSB 1   WCI  25
ROCKFORD       FOG       31  30  96 S14       30.02R VSB 1/2 WCI  21
PEORIA         CLOUDY    35  34  96 S9        30.04S WCI  28
$$

NOTE: "FAIR" INDICATES FEW OR NO CLOUDS BELOW 12,000 FEET WITH NO
SIGNIFICANT WEATHER AND/OR OBSTRUCTIONS TO VISIBILITY. WIND
SPEEDS ARE IN MILES-PER-HOUR.




USA.gov is the U.S. government's official web portal to all federal, state and local government web resources and services.